SCP
0 0 0 0 0 0 0 0 0 0 0 0 0 0 0 0 0 0 0 0 0 0 0 0 0 0 0 0 0 0 0 0 0 0 0 0 0 0 0 0 0 0 0 0 0 0 0 0 0 0 0 0 0 0
0 0 0 0 0 0 0 0 0 0 0 0 0 0 0 0 0 0 0 0 0 0 0 0 0 0 0 0 0 0 0 0 0 0 0 0 0 0 0 0 0 0 0 0 0 0 0 0 0 0 0 0 0 0
0 0 0 0 0 0 0 0 0 0 0 0 0 0 0 0 0 0 0 0 0 0 0 0 0 0 0 0 0 0 0 0 0 0 0 0 0 0 0 0 0 0 0 0 0 0 0 0 0 0 0 0 0 0
0 0 0 0 0 0 0 0 0 0 0 0 0 0 0 0 0 0 0 0 0 0 0 0 0 0 0 0 0 0 0 0 0 0 0 0 0 0 0 0 0 0 0 0 0 0 0 0 0 0 0 0 0 0
0 0 0 0 0 0 0 0 0 0 0 0 0 0 0 0 0 0 0 0 0 0 0 0 0 0 0 0 0 0 0 0 0 0 0 0 0 0 0 0 0 0 0 0 0 0 0 0 0 0 0 0 0 0
0 0 0 0 0 0 0 0 0 0 0 0 0 0 0 0 0 0 0 0 0 0 0 0 0 0 0 0 0 0 0 0 0 0 0 0 0 0 0 0 0 0 0 0 0 0 0 0 0 0 0 0 0 0
0 0 0 0 0 0 0 0 0 0 0 0 0 0 0 0 0 0 0 0 0 0 0 0 0 0 0 0 0 0 0 0 0 0 0 0 0 0 0 0 0 0 0 0 0 0 0 0 0 0 0 0 0 0
0 0 0 0 0 0 0 0 0 0 0 0 0 0 0 0 0 0 0 0 0 0 0 0 0 0 0 0 0 0 0 0 0 0 0 0 0 0 0 0 0 0 0 0 0 0 0 0 0 0 0 0 0 0
0 0 0 0 0 0 0 0 0 0 0 0 0 0 0 0 0 0 0 0 0 0 0 0 0 0 0 0 0 0 0 0 0 0 0 0 0 0 0 0 0 0 0 0 0 0 0 0 0 0 0 0 0 0
0 0 0 0 0 0 0 0 0 0 0 0 0 0 0 0 0 0 0 0 0 0 0 0 0 0 0 0 0 0 0 0 0 0 0 0 0 0 0 0 0 0 0 0 0 0 0 0 0 0 0 0 0 0
0 0 0 0 0 0 0 0 0 0 0 0 0 0 0 0 0 0 0 0 0 0 0 0 0 0 0 0 0 0 0 0 0 0 0 0 0 0 0 0 0 0 0 -0 0 0 0 0 0 0 0 0 0 0
0 -0 0 0 0 0 0 0 0 0 0 0 0 0 0 0 0 0 0 0 0 0 0 0 0 0 0 0 0 0 0 0 0 0 0 0 0 0 0 0 0 -0 -0 -0 -0 -0 -0 -0 0 0 0 0 0 0
-0 0 0 0 0 0 0 -0 0 0 0 0 0 0 0 0 0 0 0 0 0 0 0 0 0 0 0 0 0 0 0 0 0 0 0 0 0 0 -0 -0 -0 -0 -0 -0 -0 -0 -0 0 -0 0 0 0 0 0
0 0 0 0 0 -0 -0 0 0 0 0 0 0 0 0 0 0 0 0 0 0 0 0 0 0 0 0 0 0 0 0 0 0 0 0 0 0 -0 -0 -0 0 0 -0 -0 0 0 0 0 0 0 0 0 0 0
0 0 0 0 0 -0 0 0 0 0 0 0 0 0 0 0 0 0 0 0 0 0 0 0 0 0 0 0 0 0 0 0 0 0 -0 0 0 -0 -0 -0 0 0 0 -0 0 0 0 0 0 0 0 0 0 0
0 0 0 0 0 0 0 0 0 0 0 0 0 0 0 0 0 0 0 0 0 0 0 0 0 0 0 0 0 0 0 0 0 0 -0 0 -0 -0 0 0 0 0 -0 0 0 -0 -0 0 0 0 0 0 0 0
0 0 -0 -0 -0 0 0 0 0 0 0 0 0 0 0 0 0 0 0 0 0 0 0 0 0 0 0 0 0 0 -0 -0 -0 -0 -0 0 0 -0 0 0 -0 -0 -0 -0 0 -0 0 0 0 0 0 0 0 0
0 0 -0 0 0 0 0 0 0 0 0 0 0 0 0 0 0 0 0 0 0 0 0 0 0 0 0 0 0 -0 -0 -0 -0 -0 0 0 -0 -0 -0 0 -0 -0 -0 0 0 0 0 0 0 0 0 0 0 0
0 0 -0 0 0 0 0 0 0 0 0 0 0 0 0 0 0 0 0 0 0 0 -0 -0 -0 0 -0 -0 -0 -0 -0 0 0 0 0 0 0 0 0 0 0 0 0 0 0 0 0 0 0 0 0 0 0 0
-0 0 0 0 0 0 0 0 0 0 0 0 0 0 -0 -0 0 0 0 0 0 0 0 0 0 0 -0 -0 -0 0 0 0 0 0 0 0 0 -0 -0 -0 -0 -0 0 0 0 0 -0 -0 -0 0 0 0 0 0
0 0 0 0 0 0 0 0 -0 -0 -0 -0 -0 -0 -0 -0 -0 -0 -0 0 0 0 0 0 0 0 0 0 0 0 0 0 0 0 0 0 -0 -0 -0 -0 0 0 0 0 0 0 0 0 -0 0 0 0 0 0
0 0 -0 -0 -0 -0 0 0 0 -0 -0 -0 -0 -0 -0 -0 -0 0 0 0 0 0 0 0 0 0 0 0 0 0 0 0 0 -0 -0 0 -0 -0 0 0 0 0 0 0 0 0 0 -0 -0 0 0 0 0 0
-0 -0 -0 -0 -0 -0 -0 -0 -0 -0 -0 -0 -0 -0 -0 0 0 0 0 0 0 0 0 0 0 -0 0 0 0 0 0 0 0 -0 0 0 -0 -0 0 0 -0 0 0 0 0 0 0 -0 -0 0 0 0 0 0
-0 -0 -0 -0 -0 -0 -0 -0 -0 -0 -0 0 0 -0 0 0 0 0 0 0 -0 0 -0 -0 -0 0 0 -0 0 0 0 0 0 -0 -0 -0 -0 0 0 0 0 0 0 -0 0 0 -0 -0 -0 0 0 0 0 0
-0 -0 -0 -0 -0 -0 -0 -0 -0 -0 -0 0 0 0 0 -0 -0 0 0 0 0 -0 -0 -0 -0 -0 0 0 0 0 0 0 -0 -0 -0 -0 0 0 0 0 0 0 0 -0 -0 0 -0 -0 -0 0 0 0 0 0
-0 -0 -0 -0 -0 -0 -0 -0 0 0 0 0 0 0 0 -0 0 0 0 0 -0 -0 -0 0 0 0 0 0 0 0 0 -0 -0 -0 -0 0 0 0 0 0 0 -0 0 0 0 0 -0 -0 -0 0 0 0 0 0
-0 -0 0 0 0 0 -0 0 -0 -0 0 -0 -0 -0 0 -0 0 0 -0 -0 -0 0 0 0 0 0 0 0 0 0 0 -0 0 -0 -0 0 0 0 0 0 0 -0 0 -0 -0 -0 -0 -0 -0 0 -0 0 0 0
0 0 0 0 -0 0 0 0 0 -0 0 0 -0 0 0 0 0 0 -0 0 0 0 0 0 0 0 0 -0 -0 -0 0 0 0 0 0 0 0 0 0 0 -0 0 0 0 0 0 0 -0 -0 0 0 0 0 0
0 0 0 0 0 -0 -0 -0 -0 0 0 0 0 0 0 0 0 0 -0 0 0 0 0 0 0 0 -0 -0 0 0 0 -0 -0 0 0 0 0 0 -0 -0 0 0 0 0 0 -0 0 0 -0 0 0 0 0 0
0 0 0 0 -0 -0 -0 -0 -0 -0 -0 -0 0 0 0 0 0 0 0 0 0 0 0 -0 -0 -0 -0 -0 -0 -0 0 0 -0 -0 -0 -0 -0 -0 -0 -0 -0 -0 -0 -0 0 0 -0 -0 0 0 0 0 0 0
0 -0 0 0 0 0 0 0 0 0 0 0 0 0 0 0 0 0 0 0 0 0 0 -0 0 -0 -0 0 0 0 -0 0 -0 -0 -0 -0 -0 -0 -0 -0 -0 -0 0 -0 -0 -0 -0 -0 -0 0 0 0 -0 0
0 0 0 0 0 0 0 0 0 0 0 0 0 0 0 0 0 0 0 0 0 0 -0 -0 -0 -0 -0 -0 -0 0 0 0 0 0 0 -0 0 -0 -0 0 0 0 0 0 0 0 0 0 0 0 0 0 0 0
0 0 -0 0 0 0 0 0 0 0 -0 -0 0 0 0 0 0 0 0 0 0 0 0 -0 -0 0 -0 -0 -0 -0 -0 -0 -0 -0 -0 -0 -0 -0 0 0 0 0 0 0 0 0 0 0 0 0 0 0 0 0
Wind_Speed_500mb
70 66 63 59 54 50 43 39 39 37 36 29 21 19 22 34 35 27 10 19 15 14 41 48 40 29 28 13 5 5 7 4 6 4 5 6 5 5 5 6 4 9 9 7 4 2 15 10 9 6 7 12 24 22
70 68 64 61 56 51 46 41 41 38 32 29 25 20 27 33 33 28 15 19 22 27 34 48 62 66 68 52 14 5 3 4 5 7 2 3 2 3 3 5 6 3 10 7 13 10 10 2 7 8 4 11 20 26
69 67 66 63 57 51 46 45 41 37 36 33 29 24 30 33 29 29 19 17 27 30 47 22 8 18 14 36 43 14 5 3 5 3 10 4 4 7 3 9 5 6 2 4 5 5 8 16 20 19 19 21 21 19
75 79 68 66 62 57 51 47 44 40 38 36 28 26 30 32 26 25 18 14 16 13 9 13 10 11 10 15 25 45 36 11 6 4 4 4 4 12 6 8 7 9 8 3 8 19 23 24 26 24 21 26 18 11
69 68 75 72 69 67 59 50 47 45 42 34 25 31 34 29 23 19 18 16 21 14 9 30 51 24 26 16 20 25 30 27 11 6 4 5 6 3 5 3 7 19 15 8 10 22 18 28 19 31 29 29 24 27
68 62 71 86 75 69 63 52 52 48 40 34 32 34 28 20 15 12 6 13 23 24 10 8 19 11 3 21 31 29 30 20 14 8 8 8 10 8 2 6 17 23 22 20 9 34 32 30 19 25 32 24 13 7
63 68 64 61 77 73 61 58 50 44 40 39 36 29 23 18 15 11 2 1 12 15 7 13 17 8 15 19 34 27 29 18 14 7 10 10 13 12 3 12 24 30 33 43 50 35 20 20 11 21 32 24 21 8
58 72 72 59 73 72 63 60 49 43 42 41 31 25 16 20 20 21 18 17 14 13 8 3 10 16 3 6 11 15 13 13 10 10 5 8 4 8 7 28 39 34 29 31 30 30 34 20 25 31 27 20 9 3
62 64 63 60 69 66 64 51 47 45 46 36 30 22 22 14 9 7 13 17 24 10 5 5 4 6 10 6 5 5 6 2 6 8 9 10 4 8 16 27 31 30 18 15 2 8 21 25 33 32 24 11 10 6
63 61 56 62 71 73 57 53 51 50 47 44 39 14 11 11 15 17 10 14 14 10 10 10 8 6 6 3 4 4 2 5 3 8 10 5 8 46 50 52 43 31 18 21 16 19 26 28 26 27 7 8 12 3
66 58 58 70 69 70 63 59 55 56 50 42 17 11 19 27 18 8 6 7 9 6 12 13 19 7 9 4 7 10 4 4 4 8 7 4 6 8 25 23 24 21 41 22 18 15 16 13 21 13 12 8 4 5
57 58 66 66 73 68 62 62 66 65 50 33 22 31 29 10 6 5 5 6 7 8 11 10 11 17 6 11 5 3 3 2 10 1 2 5 7 8 15 26 25 10 21 26 12 22 19 16 13 13 10 7 4 11
55 58 59 72 75 64 66 65 66 58 51 49 11 13 11 9 5 10 10 6 5 9 12 10 3 3 7 8 6 4 2 9 9 2 6 8 8 2 6 13 8 23 36 30 24 23 28 23 18 11 12 6 6 15
47 54 74 61 62 67 68 71 70 65 39 10 13 8 8 7 8 10 9 8 11 10 19 15 13 7 4 3 5 3 7 3 5 4 6 6 10 4 15 12 23 16 12 12 32 26 22 15 13 10 8 6 10 17
65 73 70 67 67 71 77 75 71 50 11 7 10 8 10 16 15 11 21 17 8 9 20 7 2 3 2 3 5 0 3 7 8 6 5 39 31 7 13 12 12 20 27 32 21 22 18 15 7 8 5 1 10 17
71 69 69 74 79 80 74 71 51 18 6 6 5 4 8 8 7 11 11 13 15 13 11 5 5 3 5 4 4 10 6 8 7 8 34 41 23 12 8 23 14 15 26 21 17 22 20 12 6 11 5 1 6 10
83 74 72 69 68 70 59 48 32 3 4 3 4 8 16 7 3 8 15 11 14 13 5 6 5 10 0 3 5 6 8 6 5 34 31 32 15 5 13 34 12 19 20 21 22 17 14 13 12 9 8 4 1 6
82 73 69 71 68 61 48 29 8 7 7 8 3 6 10 12 16 11 9 15 15 10 14 6 8 2 5 5 5 4 12 33 42 29 29 23 10 6 26 8 22 23 23 24 19 19 16 13 8 4 3 9 7 2
74 69 63 63 63 42 13 9 3 5 5 5 3 2 4 8 11 14 12 10 11 10 11 10 4 5 7 12 11 10 29 36 29 30 29 16 2 20 19 19 22 20 20 22 21 17 12 9 5 4 7 3 3 6
72 74 71 58 31 10 9 7 7 3 2 3 5 7 2 5 5 8 14 19 17 9 5 5 9 9 9 19 13 22 31 17 19 25 28 15 20 28 13 23 14 20 24 22 23 17 12 14 12 9 12 12 6 3
74 60 47 27 17 10 8 9 6 4 2 2 8 5 3 5 10 12 12 21 11 6 8 18 26 27 27 25 13 17 19 19 24 23 11 22 23 15 20 20 20 23 23 24 23 17 12 15 10 2 4 2 3 3
56 44 32 18 9 8 8 6 7 7 1 1 4 7 2 2 5 8 12 14 9 15 21 26 26 21 16 17 13 19 18 10 12 29 16 7 20 22 22 25 24 21 18 17 13 12 13 8 8 9 7 11 9 6
35 23 12 6 6 6 6 7 4 3 4 2 3 3 3 2 1 3 6 7 7 6 7 8 12 16 19 17 16 13 15 17 16 21 7 15 19 16 23 26 22 17 18 13 8 10 14 12 8 10 5 5 5 4
13 5 4 4 5 6 11 5 4 4 3 1 2 2 3 3 6 2 3 2 6 8 8 12 14 16 14 18 25 23 14 12 25 22 17 22 13 26 24 19 14 18 12 13 10 10 17 11 9 7 6 6 11 9
1 3 5 2 5 7 5 7 4 2 1 2 2 4 1 3 1 1 2 4 10 13 16 18 15 13 7 7 0 13 11 17 33 32 33 23 25 23 22 18 21 12 13 13 9 10 13 12 6 8 5 2 15 13
1 5 8 10 8 7 8 8 8 8 6 6 7 3 0 3 2 5 3 6 6 16 20 12 6 4 4 14 17 17 19 24 32 26 27 26 22 21 24 21 22 20 13 12 11 12 10 10 5 7 4 7 11 13
4 5 6 9 3 4 4 1 6 5 7 9 7 9 4 2 3 4 7 8 14 20 16 2 1 7 22 21 7 21 18 19 24 23 19 13 11 5 11 12 14 17 12 9 10 9 7 8 3 1 4 6 10 9
5 2 8 13 8 6 3 4 3 4 1 7 17 7 5 2 3 2 2 12 12 15 3 9 27 12 12 16 18 32 26 21 19 20 21 13 9 14 14 13 16 10 12 13 11 8 7 6 5 1 3 6 3 6
6 3 13 6 7 9 4 3 3 3 3 0 5 4 5 5 3 7 11 9 3 4 16 33 13 6 5 22 31 25 18 12 16 22 22 20 19 14 13 14 11 12 12 13 11 13 10 12 8 5 9 9 9 11
6 14 7 4 2 3 6 6 4 9 9 5 6 10 11 6 2 5 4 1 8 18 24 16 3 12 19 23 24 20 15 6 4 8 19 18 13 10 8 21 15 4 6 17 17 12 10 10 8 7 12 16 17 11
12 10 3 2 5 4 9 18 19 12 5 6 5 14 13 7 7 6 5 18 15 13 13 15 14 19 21 17 13 12 14 14 15 8 7 12 14 12 16 12 10 8 8 8 8 9 11 11 6 8 11 12 17 18
17 11 9 5 3 5 8 6 8 7 5 8 9 8 6 3 3 2 7 14 15 20 22 23 23 18 17 16 10 9 10 9 11 16 14 14 6 2 9 12 10 10 15 12 12 14 14 16 20 15 16 15 16 14
16 12 10 13 10 8 8 8 6 7 5 4 3 3 4 3 2 3 9 17 20 20 24 23 21 20 20 16 12 13 13 14 19 17 15 14 9 4 8 12 9 10 15 12 11 10 18 15 15 18 18 15 16 18
Wind_Direction_500mb
236 236 236 237 240 244 247 251 254 258 267 269 270 294 313 319 318 316 277 244 254 260 278 280 267 257 264 269 181 321 2 332 52 88 144 232 201 269 322 280 281 183 163 200 113 166 267 357 343 227 236 168 165 163
233 233 234 235 236 239 244 247 248 253 260 271 265 287 300 301 303 305 277 245 249 261 268 281 282 279 268 247 260 266 239 281 195 96 205 102 267 343 165 277 334 273 187 192 179 216 219 287 219 291 234 205 176 161
229 229 229 230 230 234 242 246 239 244 260 260 255 271 288 295 298 295 277 259 267 283 300 283 310 320 276 226 227 224 214 208 207 200 170 173 230 127 212 248 275 298 164 245 70 280 247 253 254 238 231 220 190 171
230 230 231 226 226 226 231 236 239 252 254 244 254 277 296 290 292 281 270 264 261 286 283 294 253 283 309 292 230 223 230 230 187 219 218 141 162 189 226 242 194 218 344 251 270 289 306 258 253 236 207 178 153 229
236 234 233 233 226 229 227 228 237 245 242 238 257 272 277 278 273 265 263 252 240 247 279 295 304 267 245 244 212 201 216 213 207 197 161 228 225 150 251 319 242 216 217 176 230 272 269 271 282 235 198 190 197 186
230 233 229 226 226 223 228 230 235 237 226 238 254 262 255 251 248 260 293 251 230 223 294 304 318 320 227 212 203 199 212 224 225 210 213 231 224 206 181 250 244 242 270 221 230 301 299 274 248 218 190 173 155 220
231 230 229 229 221 221 223 227 227 223 224 239 247 239 220 221 218 196 204 161 185 208 260 298 305 316 336 199 189 204 215 216 231 233 220 227 219 197 199 248 254 254 256 270 279 279 269 236 253 191 185 196 178 190
232 224 226 234 221 213 216 223 220 218 230 231 220 200 211 223 224 237 238 229 206 205 252 275 279 322 49 158 178 205 202 207 233 225 228 213 202 213 260 247 270 279 279 286 276 237 238 247 187 173 176 167 179 255
226 221 221 227 217 206 210 213 212 216 220 199 178 186 195 205 214 229 193 210 202 218 259 231 248 266 5 70 74 159 202 210 233 211 231 166 213 230 235 249 268 276 260 302 166 156 196 181 169 172 175 156 277 242
222 220 218 225 204 203 201 204 207 208 181 170 167 153 185 178 161 142 132 163 200 218 232 239 231 261 324 116 159 322 300 243 253 244 160 186 252 256 264 265 261 264 275 215 168 152 176 171 175 163 206 229 216 199
219 217 217 213 199 194 198 197 193 169 165 156 153 158 143 139 139 165 176 183 188 246 222 237 223 229 228 171 202 202 194 233 254 262 151 246 275 267 344 327 293 259 242 223 253 239 188 192 179 198 188 161 142 348
210 213 210 195 190 188 189 189 173 173 170 157 140 132 130 156 154 162 202 170 193 229 207 206 228 214 219 218 188 182 227 47 250 183 190 259 253 2 41 21 1 241 210 191 187 133 128 147 163 167 154 121 20 342
204 192 189 187 179 184 182 170 173 173 140 140 132 145 140 158 149 195 194 211 219 207 194 193 133 208 187 203 90 86 205 239 328 36 234 230 286 223 21 35 54 142 145 138 139 139 150 130 89 100 104 48 46 359
184 183 176 172 180 165 160 169 168 148 147 154 156 127 174 195 221 197 193 195 215 169 161 161 158 198 183 117 140 153 241 358 312 282 253 286 305 93 12 333 185 180 184 173 168 154 141 127 118 98 90 57 20 1
169 164 161 156 156 159 166 163 152 159 164 144 144 172 199 220 228 231 247 251 219 162 177 153 124 184 226 158 201 336 242 256 213 232 249 333 335 300 54 95 99 138 156 164 163 159 155 138 120 138 147 44 10 6
138 139 150 155 157 157 160 152 159 151 116 130 185 158 201 166 244 218 181 178 178 169 135 113 101 84 216 205 188 224 158 228 247 241 314 327 332 324 130 226 245 181 180 172 178 175 166 160 151 154 191 246 3 20
142 137 151 150 149 149 144 151 149 141 120 203 238 239 256 256 184 143 166 176 176 164 157 128 126 209 358 248 250 194 205 224 288 327 325 334 299 302 322 183 234 181 180 173 168 165 164 151 154 158 190 189 349 16
132 140 143 143 142 147 143 140 139 159 207 229 254 87 93 153 187 195 189 188 184 172 154 188 136 131 222 232 267 258 327 314 299 304 324 343 305 301 211 211 162 168 156 156 158 167 162 165 172 165 211 220 236 273
136 138 141 144 138 127 124 161 155 162 220 285 245 257 187 200 204 182 186 201 207 181 164 159 146 212 236 225 226 269 308 306 311 334 330 304 151 145 147 150 153 149 157 162 166 165 164 182 207 200 183 196 231 259
133 134 133 138 135 107 111 114 160 153 188 29 22 35 238 223 178 171 180 186 170 175 158 190 220 229 273 291 275 312 305 307 308 317 333 169 172 180 165 162 152 150 147 142 143 144 190 205 212 217 221 243 297 295
134 138 142 136 98 93 94 131 140 168 45 77 14 20 120 145 186 198 208 203 190 222 236 233 235 269 269 277 267 302 303 297 293 311 141 156 169 180 160 166 154 151 159 153 150 137 131 148 162 100 21 267 134 147
133 139 129 96 78 76 80 76 105 113 143 315 22 349 255 217 203 205 176 181 225 245 248 265 289 287 281 296 282 273 285 288 348 181 193 137 175 170 165 167 158 159 159 164 175 178 183 141 141 139 97 109 79 92
128 113 86 87 107 91 110 155 118 130 111 1 3 1 330 296 76 182 231 223 241 252 260 268 291 295 288 277 264 264 282 248 199 191 185 159 157 164 167 172 183 185 179 180 178 187 172 153 121 145 156 202 153 133
113 91 102 106 89 110 140 147 162 188 158 89 96 308 248 287 331 213 252 116 354 337 320 319 312 315 309 279 258 257 255 217 203 195 187 175 181 174 165 180 186 165 177 180 165 173 172 157 148 162 240 235 221 198
187 132 134 101 133 130 159 169 174 144 246 127 347 327 303 318 324 191 147 351 359 348 325 323 315 314 306 341 58 167 176 167 169 166 172 189 179 169 169 173 169 198 207 184 184 180 178 156 151 181 201 294 202 194
94 183 164 178 174 185 185 159 196 183 149 171 204 226 28 60 332 236 241 9 347 339 341 331 334 29 64 72 84 133 147 154 168 173 170 171 184 181 169 168 179 168 171 178 198 168 156 177 191 219 170 184 187 212
24 204 193 205 225 130 21 147 159 149 172 186 173 176 173 204 247 173 186 350 355 347 340 357 75 135 67 52 124 150 151 166 175 176 169 172 199 201 169 175 175 168 174 193 172 200 209 209 231 228 285 206 230 235
262 252 149 158 157 206 170 187 220 217 107 132 139 172 197 187 173 164 253 322 340 327 342 124 133 124 34 67 93 137 131 128 149 169 179 182 205 201 195 172 161 180 183 176 189 196 196 194 209 345 172 191 214 222
243 204 147 156 193 216 240 321 32 80 60 6 136 129 121 117 149 305 327 335 334 120 136 152 155 338 95 136 142 136 128 136 157 161 167 162 153 155 165 175 199 193 199 186 189 203 220 216 199 203 254 283 255 239
236 190 186 103 128 198 198 227 173 144 101 95 128 127 124 126 29 343 348 166 184 153 165 184 147 86 111 143 151 143 143 187 111 109 156 168 172 177 173 184 200 192 172 196 209 232 243 217 222 236 250 253 250 270
160 137 71 140 101 206 46 107 122 97 62 66 108 136 130 136 83 57 93 113 130 144 180 182 158 155 158 161 167 159 176 175 175 184 164 132 130 153 174 184 207 253 213 157 166 180 179 183 200 251 281 310 270 266
173 172 182 99 113 144 141 116 88 87 91 102 84 101 102 103 62 96 126 126 102 125 129 146 161 170 167 162 153 155 145 141 152 159 152 177 187 199 201 188 196 196 206 214 239 259 268 267 261 256 265 287 303 251
115 124 143 132 140 173 182 160 132 120 94 100 131 124 103 109 145 128 161 171 131 126 130 128 126 124 136 153 147 136 129 140 152 153 169 185 194 134 148 182 217 233 221 246 277 292 240 251 261 254 258 262 333 318
Wind_Speed_850mb
70 66 63 59 54 50 43 39 39 37 36 29 21 19 22 34 35 27 10 19 15 14 41 48 40 29 28 13 5 5 7 4 6 4 5 6 5 5 5 6 4 9 9 7 4 2 15 10 9 6 7 12 24 22
70 68 64 61 56 51 46 41 41 38 32 29 25 20 27 33 33 28 15 19 22 27 34 48 62 66 68 52 14 5 3 4 5 7 2 3 2 3 3 5 6 3 10 7 13 10 10 2 7 8 4 11 20 26
69 67 66 63 57 51 46 45 41 37 36 33 29 24 30 33 29 29 19 17 27 30 47 22 8 18 14 36 43 14 5 3 5 3 10 4 4 7 3 9 5 6 2 4 5 5 8 16 20 19 19 21 21 19
75 79 68 66 62 57 51 47 44 40 38 36 28 26 30 32 26 25 18 14 16 13 9 13 10 11 10 15 25 45 36 11 6 4 4 4 4 12 6 8 7 9 8 3 8 19 23 24 26 24 21 26 18 11
69 68 75 72 69 67 59 50 47 45 42 34 25 31 34 29 23 19 18 16 21 14 9 30 51 24 26 16 20 25 30 27 11 6 4 5 6 3 5 3 7 19 15 8 10 22 18 28 19 31 29 29 24 27
68 62 71 86 75 69 63 52 52 48 40 34 32 34 28 20 15 12 6 13 23 24 10 8 19 11 3 21 31 29 30 20 14 8 8 8 10 8 2 6 17 23 22 20 9 34 32 30 19 25 32 24 13 7
63 68 64 61 77 73 61 58 50 44 40 39 36 29 23 18 15 11 2 1 12 15 7 13 17 8 15 19 34 27 29 18 14 7 10 10 13 12 3 12 24 30 33 43 50 35 20 20 11 21 32 24 21 8
58 72 72 59 73 72 63 60 49 43 42 41 31 25 16 20 20 21 18 17 14 13 8 3 10 16 3 6 11 15 13 13 10 10 5 8 4 8 7 28 39 34 29 31 30 30 34 20 25 31 27 20 9 3
62 64 63 60 69 66 64 51 47 45 46 36 30 22 22 14 9 7 13 17 24 10 5 5 4 6 10 6 5 5 6 2 6 8 9 10 4 8 16 27 31 30 18 15 2 8 21 25 33 32 24 11 10 6
63 61 56 62 71 73 57 53 51 50 47 44 39 14 11 11 15 17 10 14 14 10 10 10 8 6 6 3 4 4 2 5 3 8 10 5 8 46 50 52 43 31 18 21 16 19 26 28 26 27 7 8 12 3
66 58 58 70 69 70 63 59 55 56 50 42 17 11 19 27 18 8 6 7 9 6 12 13 19 7 9 4 7 10 4 4 4 8 7 4 6 8 25 23 24 21 41 22 18 15 16 13 21 13 12 8 4 5
57 58 66 66 73 68 62 62 66 65 50 33 22 31 29 10 6 5 5 6 7 8 11 10 11 17 6 11 5 3 3 2 10 1 2 5 7 8 15 26 25 10 21 26 12 22 19 16 13 13 10 7 4 11
55 58 59 72 75 64 66 65 66 58 51 49 11 13 11 9 5 10 10 6 5 9 12 10 3 3 7 8 6 4 2 9 9 2 6 8 8 2 6 13 8 23 36 30 24 23 28 23 18 11 12 6 6 15
47 54 74 61 62 67 68 71 70 65 39 10 13 8 8 7 8 10 9 8 11 10 19 15 13 7 4 3 5 3 7 3 5 4 6 6 10 4 15 12 23 16 12 12 32 26 22 15 13 10 8 6 10 17
65 73 70 67 67 71 77 75 71 50 11 7 10 8 10 16 15 11 21 17 8 9 20 7 2 3 2 3 5 0 3 7 8 6 5 39 31 7 13 12 12 20 27 32 21 22 18 15 7 8 5 1 10 17
71 69 69 74 79 80 74 71 51 18 6 6 5 4 8 8 7 11 11 13 15 13 11 5 5 3 5 4 4 10 6 8 7 8 34 41 23 12 8 23 14 15 26 21 17 22 20 12 6 11 5 1 6 10
83 74 72 69 68 70 59 48 32 3 4 3 4 8 16 7 3 8 15 11 14 13 5 6 5 10 0 3 5 6 8 6 5 34 31 32 15 5 13 34 12 19 20 21 22 17 14 13 12 9 8 4 1 6
82 73 69 71 68 61 48 29 8 7 7 8 3 6 10 12 16 11 9 15 15 10 14 6 8 2 5 5 5 4 12 33 42 29 29 23 10 6 26 8 22 23 23 24 19 19 16 13 8 4 3 9 7 2
74 69 63 63 63 42 13 9 3 5 5 5 3 2 4 8 11 14 12 10 11 10 11 10 4 5 7 12 11 10 29 36 29 30 29 16 2 20 19 19 22 20 20 22 21 17 12 9 5 4 7 3 3 6
72 74 71 58 31 10 9 7 7 3 2 3 5 7 2 5 5 8 14 19 17 9 5 5 9 9 9 19 13 22 31 17 19 25 28 15 20 28 13 23 14 20 24 22 23 17 12 14 12 9 12 12 6 3
74 60 47 27 17 10 8 9 6 4 2 2 8 5 3 5 10 12 12 21 11 6 8 18 26 27 27 25 13 17 19 19 24 23 11 22 23 15 20 20 20 23 23 24 23 17 12 15 10 2 4 2 3 3
56 44 32 18 9 8 8 6 7 7 1 1 4 7 2 2 5 8 12 14 9 15 21 26 26 21 16 17 13 19 18 10 12 29 16 7 20 22 22 25 24 21 18 17 13 12 13 8 8 9 7 11 9 6
35 23 12 6 6 6 6 7 4 3 4 2 3 3 3 2 1 3 6 7 7 6 7 8 12 16 19 17 16 13 15 17 16 21 7 15 19 16 23 26 22 17 18 13 8 10 14 12 8 10 5 5 5 4
13 5 4 4 5 6 11 5 4 4 3 1 2 2 3 3 6 2 3 2 6 8 8 12 14 16 14 18 25 23 14 12 25 22 17 22 13 26 24 19 14 18 12 13 10 10 17 11 9 7 6 6 11 9
1 3 5 2 5 7 5 7 4 2 1 2 2 4 1 3 1 1 2 4 10 13 16 18 15 13 7 7 0 13 11 17 33 32 33 23 25 23 22 18 21 12 13 13 9 10 13 12 6 8 5 2 15 13
1 5 8 10 8 7 8 8 8 8 6 6 7 3 0 3 2 5 3 6 6 16 20 12 6 4 4 14 17 17 19 24 32 26 27 26 22 21 24 21 22 20 13 12 11 12 10 10 5 7 4 7 11 13
4 5 6 9 3 4 4 1 6 5 7 9 7 9 4 2 3 4 7 8 14 20 16 2 1 7 22 21 7 21 18 19 24 23 19 13 11 5 11 12 14 17 12 9 10 9 7 8 3 1 4 6 10 9
5 2 8 13 8 6 3 4 3 4 1 7 17 7 5 2 3 2 2 12 12 15 3 9 27 12 12 16 18 32 26 21 19 20 21 13 9 14 14 13 16 10 12 13 11 8 7 6 5 1 3 6 3 6
6 3 13 6 7 9 4 3 3 3 3 0 5 4 5 5 3 7 11 9 3 4 16 33 13 6 5 22 31 25 18 12 16 22 22 20 19 14 13 14 11 12 12 13 11 13 10 12 8 5 9 9 9 11
6 14 7 4 2 3 6 6 4 9 9 5 6 10 11 6 2 5 4 1 8 18 24 16 3 12 19 23 24 20 15 6 4 8 19 18 13 10 8 21 15 4 6 17 17 12 10 10 8 7 12 16 17 11
12 10 3 2 5 4 9 18 19 12 5 6 5 14 13 7 7 6 5 18 15 13 13 15 14 19 21 17 13 12 14 14 15 8 7 12 14 12 16 12 10 8 8 8 8 9 11 11 6 8 11 12 17 18
17 11 9 5 3 5 8 6 8 7 5 8 9 8 6 3 3 2 7 14 15 20 22 23 23 18 17 16 10 9 10 9 11 16 14 14 6 2 9 12 10 10 15 12 12 14 14 16 20 15 16 15 16 14
16 12 10 13 10 8 8 8 6 7 5 4 3 3 4 3 2 3 9 17 20 20 24 23 21 20 20 16 12 13 13 14 19 17 15 14 9 4 8 12 9 10 15 12 11 10 18 15 15 18 18 15 16 18
Wind_Direction_850mb
236 236 236 237 240 244 247 251 254 258 267 269 270 294 313 319 318 316 277 244 254 260 278 280 267 257 264 269 181 321 2 332 52 88 144 232 201 269 322 280 281 183 163 200 113 166 267 357 343 227 236 168 165 163
233 233 234 235 236 239 244 247 248 253 260 271 265 287 300 301 303 305 277 245 249 261 268 281 282 279 268 247 260 266 239 281 195 96 205 102 267 343 165 277 334 273 187 192 179 216 219 287 219 291 234 205 176 161
229 229 229 230 230 234 242 246 239 244 260 260 255 271 288 295 298 295 277 259 267 283 300 283 310 320 276 226 227 224 214 208 207 200 170 173 230 127 212 248 275 298 164 245 70 280 247 253 254 238 231 220 190 171
230 230 231 226 226 226 231 236 239 252 254 244 254 277 296 290 292 281 270 264 261 286 283 294 253 283 309 292 230 223 230 230 187 219 218 141 162 189 226 242 194 218 344 251 270 289 306 258 253 236 207 178 153 229
236 234 233 233 226 229 227 228 237 245 242 238 257 272 277 278 273 265 263 252 240 247 279 295 304 267 245 244 212 201 216 213 207 197 161 228 225 150 251 319 242 216 217 176 230 272 269 271 282 235 198 190 197 186
230 233 229 226 226 223 228 230 235 237 226 238 254 262 255 251 248 260 293 251 230 223 294 304 318 320 227 212 203 199 212 224 225 210 213 231 224 206 181 250 244 242 270 221 230 301 299 274 248 218 190 173 155 220
231 230 229 229 221 221 223 227 227 223 224 239 247 239 220 221 218 196 204 161 185 208 260 298 305 316 336 199 189 204 215 216 231 233 220 227 219 197 199 248 254 254 256 270 279 279 269 236 253 191 185 196 178 190
232 224 226 234 221 213 216 223 220 218 230 231 220 200 211 223 224 237 238 229 206 205 252 275 279 322 49 158 178 205 202 207 233 225 228 213 202 213 260 247 270 279 279 286 276 237 238 247 187 173 176 167 179 255
226 221 221 227 217 206 210 213 212 216 220 199 178 186 195 205 214 229 193 210 202 218 259 231 248 266 5 70 74 159 202 210 233 211 231 166 213 230 235 249 268 276 260 302 166 156 196 181 169 172 175 156 277 242
222 220 218 225 204 203 201 204 207 208 181 170 167 153 185 178 161 142 132 163 200 218 232 239 231 261 324 116 159 322 300 243 253 244 160 186 252 256 264 265 261 264 275 215 168 152 176 171 175 163 206 229 216 199
219 217 217 213 199 194 198 197 193 169 165 156 153 158 143 139 139 165 176 183 188 246 222 237 223 229 228 171 202 202 194 233 254 262 151 246 275 267 344 327 293 259 242 223 253 239 188 192 179 198 188 161 142 348
210 213 210 195 190 188 189 189 173 173 170 157 140 132 130 156 154 162 202 170 193 229 207 206 228 214 219 218 188 182 227 47 250 183 190 259 253 2 41 21 1 241 210 191 187 133 128 147 163 167 154 121 20 342
204 192 189 187 179 184 182 170 173 173 140 140 132 145 140 158 149 195 194 211 219 207 194 193 133 208 187 203 90 86 205 239 328 36 234 230 286 223 21 35 54 142 145 138 139 139 150 130 89 100 104 48 46 359
184 183 176 172 180 165 160 169 168 148 147 154 156 127 174 195 221 197 193 195 215 169 161 161 158 198 183 117 140 153 241 358 312 282 253 286 305 93 12 333 185 180 184 173 168 154 141 127 118 98 90 57 20 1
169 164 161 156 156 159 166 163 152 159 164 144 144 172 199 220 228 231 247 251 219 162 177 153 124 184 226 158 201 336 242 256 213 232 249 333 335 300 54 95 99 138 156 164 163 159 155 138 120 138 147 44 10 6
138 139 150 155 157 157 160 152 159 151 116 130 185 158 201 166 244 218 181 178 178 169 135 113 101 84 216 205 188 224 158 228 247 241 314 327 332 324 130 226 245 181 180 172 178 175 166 160 151 154 191 246 3 20
142 137 151 150 149 149 144 151 149 141 120 203 238 239 256 256 184 143 166 176 176 164 157 128 126 209 358 248 250 194 205 224 288 327 325 334 299 302 322 183 234 181 180 173 168 165 164 151 154 158 190 189 349 16
132 140 143 143 142 147 143 140 139 159 207 229 254 87 93 153 187 195 189 188 184 172 154 188 136 131 222 232 267 258 327 314 299 304 324 343 305 301 211 211 162 168 156 156 158 167 162 165 172 165 211 220 236 273
136 138 141 144 138 127 124 161 155 162 220 285 245 257 187 200 204 182 186 201 207 181 164 159 146 212 236 225 226 269 308 306 311 334 330 304 151 145 147 150 153 149 157 162 166 165 164 182 207 200 183 196 231 259
133 134 133 138 135 107 111 114 160 153 188 29 22 35 238 223 178 171 180 186 170 175 158 190 220 229 273 291 275 312 305 307 308 317 333 169 172 180 165 162 152 150 147 142 143 144 190 205 212 217 221 243 297 295
134 138 142 136 98 93 94 131 140 168 45 77 14 20 120 145 186 198 208 203 190 222 236 233 235 269 269 277 267 302 303 297 293 311 141 156 169 180 160 166 154 151 159 153 150 137 131 148 162 100 21 267 134 147
133 139 129 96 78 76 80 76 105 113 143 315 22 349 255 217 203 205 176 181 225 245 248 265 289 287 281 296 282 273 285 288 348 181 193 137 175 170 165 167 158 159 159 164 175 178 183 141 141 139 97 109 79 92
128 113 86 87 107 91 110 155 118 130 111 1 3 1 330 296 76 182 231 223 241 252 260 268 291 295 288 277 264 264 282 248 199 191 185 159 157 164 167 172 183 185 179 180 178 187 172 153 121 145 156 202 153 133
113 91 102 106 89 110 140 147 162 188 158 89 96 308 248 287 331 213 252 116 354 337 320 319 312 315 309 279 258 257 255 217 203 195 187 175 181 174 165 180 186 165 177 180 165 173 172 157 148 162 240 235 221 198
187 132 134 101 133 130 159 169 174 144 246 127 347 327 303 318 324 191 147 351 359 348 325 323 315 314 306 341 58 167 176 167 169 166 172 189 179 169 169 173 169 198 207 184 184 180 178 156 151 181 201 294 202 194
94 183 164 178 174 185 185 159 196 183 149 171 204 226 28 60 332 236 241 9 347 339 341 331 334 29 64 72 84 133 147 154 168 173 170 171 184 181 169 168 179 168 171 178 198 168 156 177 191 219 170 184 187 212
24 204 193 205 225 130 21 147 159 149 172 186 173 176 173 204 247 173 186 350 355 347 340 357 75 135 67 52 124 150 151 166 175 176 169 172 199 201 169 175 175 168 174 193 172 200 209 209 231 228 285 206 230 235
262 252 149 158 157 206 170 187 220 217 107 132 139 172 197 187 173 164 253 322 340 327 342 124 133 124 34 67 93 137 131 128 149 169 179 182 205 201 195 172 161 180 183 176 189 196 196 194 209 345 172 191 214 222
243 204 147 156 193 216 240 321 32 80 60 6 136 129 121 117 149 305 327 335 334 120 136 152 155 338 95 136 142 136 128 136 157 161 167 162 153 155 165 175 199 193 199 186 189 203 220 216 199 203 254 283 255 239
236 190 186 103 128 198 198 227 173 144 101 95 128 127 124 126 29 343 348 166 184 153 165 184 147 86 111 143 151 143 143 187 111 109 156 168 172 177 173 184 200 192 172 196 209 232 243 217 222 236 250 253 250 270
160 137 71 140 101 206 46 107 122 97 62 66 108 136 130 136 83 57 93 113 130 144 180 182 158 155 158 161 167 159 176 175 175 184 164 132 130 153 174 184 207 253 213 157 166 180 179 183 200 251 281 310 270 266
173 172 182 99 113 144 141 116 88 87 91 102 84 101 102 103 62 96 126 126 102 125 129 146 161 170 167 162 153 155 145 141 152 159 152 177 187 199 201 188 196 196 206 214 239 259 268 267 261 256 265 287 303 251
115 124 143 132 140 173 182 160 132 120 94 100 131 124 103 109 145 128 161 171 131 126 130 128 126 124 136 153 147 136 129 140 152 153 169 185 194 134 148 182 217 233 221 246 277 292 240 251 261 254 258 262 333 318